Location: Peebles
(55.6412°N, 3.1714°W)
Time: 22:27:54
(UTC+00:00)

deb Agena D - Pass Details

Date: 21 September 2023
Orbit: 794 x 979 km, 99.8° (Epoch: 28 November)

Event Time Altitude Azimuth Distance (km) Brightness Sun altitude
Rises 01:11:42 0° 18° (NNE) 3,690 10.5 -33.5°
Reaches altitude 10° 01:14:12 10° 22° (NNE) 2,744 9.6 -33.5°
Enters shadow 01:19:07 54° 50° (NE) 1,175 7.0 -33.4°
